International Virtual Aviation Organisation

Russian Federation and Kazakhstan MCD

 

Карточка аэропорта UAKK

Внимание!
Информация на этой странице в стадии наполнения.
Если вы не увидели какой-то информации, или заметили неточность - пожалуйста сообщите нам!
Спасибо!
Команда RU-STAFF
Название аэропортаКараганда
Название аэропорта (англ.)Karaganda
Превышение1768 ft. (538.9 m.)
Координаты49°40.302', 73°20.118'
Высота перехода10000
Эшелон переходаby ATC
Коды ответчика0630-0637, 7220-7227
Зона ОрВДНур-Султан РПИ (UACN)
Данные METARUAKK 091500Z 20004MPS 9999 FEW049 18/14 Q1001 R23/2///60 NOSIG RMK QFE705/0940
Проноз погоды (TAF)UAKK 091100Z 0912/1012 20006MPS 9999 SCT030 BKN100 TX28/1009Z TN12/0923Z TEMPO 0912/0918 VRB17MPS 3100 -TSRA SQ BKN020CB TEMPO 0918/1002 VRB02MPS BECMG 1002/1004 22007MPS TEMPO 1004/1006 23010MPS TEMPO 1006/1012 23010G15MPS SCT030CB
NOTAMshow/hide NOTAM
AWOS   TABLE

Информация о ВПП

ВПП Длина ВПП (м.) Покрытие Курс ВПП Частота ILS
053601Железобетон50109.9
233601Железобетон230111.7

Диспетчерские позиции




Спутниковое изображение